owner,sensor,date,latitude,longitude,vertical_datum,wind_speed,wind_to_direction,wind_speed_of_gust,qcFlag 
TABS,ioos:station:wmo:42044:1,2003-06-01T00:09:00Z,26.1914,-97.0507,0.0,6.161834143,107.0826008,9.33,'11111222,11111222,11111222' 
TABS,ioos:station:wmo:42044:1,2003-06-01T00:39:00Z,26.1914,-97.0507,0.0,6.206005156,106.1867293,9.98,'11111222,11111222,11111222' 
TABS,ioos:station:wmo:42044:1,2003-06-01T01:09:00Z,26.1914,-97.0507,0.0,6.020979987,108.4955111,10.43,'11111222,11111222,11111222' 
TABS,ioos:station:wmo:42044:1,2003-06-01T01:39:00Z,26.1914,-97.0507,0.0,6.590569019,105.8502471,10.38,'11111222,11111222,11111222' 
TABS,ioos:station:wmo:42044:1,2003-06-01T02:09:00Z,26.1914,-97.0507,0.0,6.499423051,109.4110705,10.69,'11111222,11111222,11111222' 
TABS,ioos:station:wmo:42044:1,2003-06-01T02:39:00Z,26.1914,-97.0507,0.0,5.983853274,112.708618,11.29,'11111222,11111222,11111222' 
TABS,ioos:station:wmo:42044:1,2003-06-01T03:09:00Z,26.1914,-97.0507,0.0,6.38376848,115.1202763,10.59,'11111222,11111222,11111222' 
TABS,ioos:station:wmo:42044:1,2003-06-01T03:39:00Z,26.1914,-97.0507,0.0,6.788703853,116.6031541,11.35,'11111222,11111222,11111222' 
TABS,ioos:station:wmo:42044:1,2003-06-01T04:09:00Z,26.1914,-97.0507,0.0,6.144151691,114.5214947,9.84,'11111222,11111222,11111222' 
TABS,ioos:station:wmo:42044:1,2003-06-01T04:39:00Z,26.1914,-97.0507,0.0,6.183049409,121.7110517,10.0,'11111222,11111222,11111222' 
TABS,ioos:station:wmo:42044:1,2003-06-01T05:09:00Z,26.1914,-97.0507,0.0,7.654051215,126.6606333,11.84,'11111222,11111222,11111222' 
TABS,ioos:station:wmo:42044:1,2003-06-01T05:39:00Z,26.1914,-97.0507,0.0,7.909108673,133.258409,11.3,'11111222,11111222,11111222' 
TABS,ioos:station:wmo:42044:1,2003-06-01T06:09:00Z,26.1914,-97.0507,0.0,8.135711401,136.793333,11.42,'11111222,11111222,11111222' 
TABS,ioos:station:wmo:42044:1,2003-06-01T06:39:00Z,26.1914,-97.0507,0.0,8.330918317,134.0276478,11.5,'11111222,11111222,11111222' 
TABS,ioos:station:wmo:42044:1,2003-06-01T07:09:00Z,26.1914,-97.0507,0.0,7.895885004,133.0501421,11.84,'11111222,11111222,11111222' 
TABS,ioos:station:wmo:42044:1,2003-06-01T07:39:00Z,26.1914,-97.0507,0.0,8.580425397,128.2325673,12.06,'11111222,11111222,11111222' 
TABS,ioos:station:wmo:42044:1,2003-06-01T08:09:00Z,26.1914,-97.0507,0.0,7.823362448,127.9395488,11.91,'11111222,11111222,11111222' 
TABS,ioos:station:wmo:42044:1,2003-06-01T08:39:00Z,26.1914,-97.0507,0.0,8.511498106,128.5129576,11.99,'11111222,11111222,11111222' 
TABS,ioos:station:wmo:42044:1,2003-06-01T09:09:00Z,26.1914,-97.0507,0.0,8.315389347,127.9176184,12.66,'11111222,11111222,11111222' 
TABS,ioos:station:wmo:42044:1,2003-06-01T09:39:00Z,26.1914,-97.0507,0.0,7.299239686,122.2969477,11.59,'11111222,11111222,11111222' 
TABS,ioos:station:wmo:42044:1,2003-06-01T10:09:00Z,26.1914,-97.0507,0.0,7.102091241,127.1606612,11.64,'11111222,11111222,11111222' 
TABS,ioos:station:wmo:42044:1,2003-06-01T10:39:00Z,26.1914,-97.0507,0.0,7.228001107,124.1740913,10.94,'11111222,11111222,11111222' 
TABS,ioos:station:wmo:42044:1,2003-06-01T11:09:00Z,26.1914,-97.0507,0.0,6.516087783,116.1328498,9.77,'11111222,11111222,11111222' 
TABS,ioos:station:wmo:42044:1,2003-06-01T11:39:00Z,26.1914,-97.0507,0.0,6.373256624,120.3473835,10.25,'11111222,11111222,11111222' 
TABS,ioos:station:wmo:42044:1,2003-06-01T12:09:00Z,26.1914,-97.0507,0.0,6.04315315,108.2254534,9.94,'11111222,11111222,11111222' 
TABS,ioos:station:wmo:42044:1,2003-06-01T12:39:00Z,26.1914,-97.0507,0.0,5.866191269,97.93712528,9.35,'11111222,11111222,11111222' 
TABS,ioos:station:wmo:42044:1,2003-06-01T13:09:00Z,26.1914,-97.0507,0.0,5.696428706,99.39657887,8.78,'11111222,11111222,11111222' 
TABS,ioos:station:wmo:42044:1,2003-06-01T13:39:00Z,26.1914,-97.0507,0.0,5.768231965,100.5895425,8.79,'11111222,11111222,11111222' 
TABS,ioos:station:wmo:42044:1,2003-06-01T14:09:00Z,26.1914,-97.0507,0.0,6.262307881,104.2363445,9.6,'11111222,11111222,11111222' 
TABS,ioos:station:wmo:42044:1,2003-06-01T14:39:00Z,26.1914,-97.0507,0.0,6.259528736,102.5490557,9.55,'11111222,11111222,11111222' 
TABS,ioos:station:wmo:42044:1,2003-06-01T15:09:00Z,26.1914,-97.0507,0.0,5.718959696,93.20803004,8.95,'11111222,11111222,11111222' 
TABS,ioos:station:wmo:42044:1,2003-06-01T16:09:00Z,26.1914,-97.0507,0.0,5.666833331,99.44609911,10.47,'11111222,11111222,11111222' 
TABS,ioos:station:wmo:42044:1,2003-06-01T16:39:00Z,26.1914,-97.0507,0.0,5.719090837,98.24384861,8.76,'11111222,11111222,11111222' 
TABS,ioos:station:wmo:42044:1,2003-06-01T17:09:00Z,26.1914,-97.0507,0.0,5.292003401,99.462721,9.33,'11111222,11111222,11111222' 
TABS,ioos:station:wmo:42044:1,2003-06-01T17:39:00Z,26.1914,-97.0507,0.0,4.988436629,93.33315055,7.81,'11111222,11111222,11111222' 
TABS,ioos:station:wmo:42044:1,2003-06-01T18:09:00Z,26.1914,-97.0507,0.0,5.41,90.00042092,7.66,'11111222,11111222,11111222' 
TABS,ioos:station:wmo:42044:1,2003-06-01T18:39:00Z,26.1914,-97.0507,0.0,5.981187173,95.85397739,9.05,'11111222,11111222,11111222' 
TABS,ioos:station:wmo:42044:1,2003-06-01T19:09:00Z,26.1914,-97.0507,0.0,5.373723104,92.13335111,8.3,'11111222,11111222,11111222' 
TABS,ioos:station:wmo:42044:1,2003-06-01T19:39:00Z,26.1914,-97.0507,0.0,5.386278864,87.23279715,7.59,'11111222,11111222,11111222' 
TABS,ioos:station:wmo:42044:1,2003-06-01T20:09:00Z,26.1914,-97.0507,0.0,4.962579974,88.15197314,7.0,'11111222,11111222,11111222' 
TABS,ioos:station:wmo:42044:1,2003-06-01T20:39:00Z,26.1914,-97.0507,0.0,5.152591581,94.00680302,7.56,'11111222,11111222,11111222' 
TABS,ioos:station:wmo:42044:1,2003-06-01T21:09:00Z,26.1914,-97.0507,0.0,5.960880807,86.53717268,8.6,'11111222,11111222,11111222' 
TABS,ioos:station:wmo:42044:1,2003-06-01T21:39:00Z,26.1914,-97.0507,0.0,6.156443779,95.31279913,8.35,'11111222,11111222,11111222' 
TABS,ioos:station:wmo:42044:1,2003-06-01T22:09:00Z,26.1914,-97.0507,0.0,6.215030169,92.30576403,8.6,'11111222,11111222,11111222' 
TABS,ioos:station:wmo:42044:1,2003-06-01T22:39:00Z,26.1914,-97.0507,0.0,6.268404901,85.60789437,8.1,'11111222,11111222,11111222' 
TABS,ioos:station:wmo:42044:1,2003-06-01T23:09:00Z,26.1914,-97.0507,0.0,6.371538276,88.74053682,8.13,'11111222,11111222,11111222' 
TABS,ioos:station:wmo:42044:1,2003-06-01T23:39:00Z,26.1914,-97.0507,0.0,6.117319674,85.68708602,8.26,'11111222,11111222,11111222' 
TABS,ioos:station:wmo:42044:1,2003-06-02T00:09:00Z,26.1914,-97.0507,0.0,6.448643268,85.64177053,8.44,'11111222,11111222,11111222' 
TABS,ioos:station:wmo:42044:1,2003-06-02T00:39:00Z,26.1914,-97.0507,0.0,6.631214067,85.41533318,8.6,'11111222,11111222,11111222' 
TABS,ioos:station:wmo:42044:1,2003-06-02T01:09:00Z,26.1914,-97.0507,0.0,6.818122909,83.93780447,9.29,'11111222,11111222,11111222' 
TABS,ioos:station:wmo:42044:1,2003-06-02T01:39:00Z,26.1914,-97.0507,0.0,7.17044629,90.63967635,9.49,'11111222,11111222,11111222' 
TABS,ioos:station:wmo:42044:1,2003-06-02T02:09:00Z,26.1914,-97.0507,0.0,6.864925346,92.1709371,9.28,'11111222,11111222,11111222' 
TABS,ioos:station:wmo:42044:1,2003-06-02T02:39:00Z,26.1914,-97.0507,0.0,7.048659447,101.7885767,9.87,'11111222,11111222,11111222' 
TABS,ioos:station:wmo:42044:1,2003-06-02T03:09:00Z,26.1914,-97.0507,0.0,6.768308504,102.804657,10.46,'11111222,11111222,11111222' 
TABS,ioos:station:wmo:42044:1,2003-06-02T03:39:00Z,26.1914,-97.0507,0.0,6.360440236,105.1290935,9.61,'11111222,11111222,11111222' 
TABS,ioos:station:wmo:42044:1,2003-06-02T04:09:00Z,26.1914,-97.0507,0.0,6.06152621,104.8161161,8.9,'11111222,11111222,11111222' 
TABS,ioos:station:wmo:42044:1,2003-06-02T04:39:00Z,26.1914,-97.0507,0.0,6.079638147,109.8063447,10.24,'11111222,11111222,11111222' 
TABS,ioos:station:wmo:42044:1,2003-06-02T05:09:00Z,26.1914,-97.0507,0.0,5.369878956,104.450685,8.96,'11111222,11111222,11111222' 
TABS,ioos:station:wmo:42044:1,2003-06-02T05:39:00Z,26.1914,-97.0507,0.0,5.901398139,111.7837506,8.83,'11111222,11111222,11111222' 
TABS,ioos:station:wmo:42044:1,2003-06-02T06:09:00Z,26.1914,-97.0507,0.0,5.749034702,108.5613895,8.84,'11111222,11111222,11111222' 
TABS,ioos:station:wmo:42044:1,2003-06-02T06:39:00Z,26.1914,-97.0507,0.0,6.202910607,114.3755179,9.71,'11111222,11111222,11111222' 
TABS,ioos:station:wmo:42044:1,2003-06-02T07:09:00Z,26.1914,-97.0507,0.0,6.165427803,112.4057774,9.84,'11111222,11111222,11111222' 
TABS,ioos:station:wmo:42044:1,2003-06-02T07:39:00Z,26.1914,-97.0507,0.0,6.455176218,111.1589611,10.5,'11111222,11111222,11111222' 
TABS,ioos:station:wmo:42044:1,2003-06-02T08:09:00Z,26.1914,-97.0507,0.0,6.813904901,114.9105791,10.89,'11111222,11111222,11111222' 
TABS,ioos:station:wmo:42044:1,2003-06-02T08:39:00Z,26.1914,-97.0507,0.0,6.695438746,123.239459,9.39,'11111222,11111222,11111222' 
TABS,ioos:station:wmo:42044:1,2003-06-02T09:09:00Z,26.1914,-97.0507,0.0,6.1891518,110.4263979,9.98,'11111222,11111222,11111222' 
TABS,ioos:station:wmo:42044:1,2003-06-02T09:39:00Z,26.1914,-97.0507,0.0,5.468162397,110.5564181,7.97,'11111222,11111222,11111222' 
TABS,ioos:station:wmo:42044:1,2003-06-02T10:09:00Z,26.1914,-97.0507,0.0,5.618941181,113.8282601,9.21,'11111222,11111222,11111222' 
TABS,ioos:station:wmo:42044:1,2003-06-02T10:39:00Z,26.1914,-97.0507,0.0,5.456161654,112.5232998,8.33,'11111222,11111222,11111222' 
TABS,ioos:station:wmo:42044:1,2003-06-02T11:09:00Z,26.1914,-97.0507,0.0,6.91783203,118.4918335,10.94,'11111222,11111222,11111222' 
TABS,ioos:station:wmo:42044:1,2003-06-02T11:39:00Z,26.1914,-97.0507,0.0,8.884649684,122.7781927,11.01,'11111222,11111222,11111222' 
TABS,ioos:station:wmo:42044:1,2003-06-02T12:09:00Z,26.1914,-97.0507,0.0,9.59781746,129.4619457,11.57,'11111222,11111222,11111222' 
TABS,ioos:station:wmo:42044:1,2003-06-02T12:39:00Z,26.1914,-97.0507,0.0,9.51674314,130.6538619,11.84,'11111222,11111222,11111222' 
TABS,ioos:station:wmo:42044:1,2003-06-02T13:09:00Z,26.1914,-97.0507,0.0,9.474439297,130.6344172,11.92,'11111222,11111222,11111222' 
TABS,ioos:station:wmo:42044:1,2003-06-02T13:39:00Z,26.1914,-97.0507,0.0,9.481529412,131.2374117,12.07,'11111222,11111222,11111222' 
TABS,ioos:station:wmo:42044:1,2003-06-02T14:09:00Z,26.1914,-97.0507,0.0,8.884734098,128.7407091,11.51,'11111222,11111222,11111222' 
TABS,ioos:station:wmo:42044:1,2003-06-02T14:39:00Z,26.1914,-97.0507,0.0,8.961294549,128.8398736,11.23,'11111222,11111222,11111222' 
TABS,ioos:station:wmo:42044:1,2003-06-02T15:09:00Z,26.1914,-97.0507,0.0,8.773642345,132.968097,11.0,'11111222,11111222,11111222' 
TABS,ioos:station:wmo:42044:1,2003-06-02T16:09:00Z,26.1914,-97.0507,0.0,8.585691585,119.6707368,10.74,'11111222,11111222,11111222' 
TABS,ioos:station:wmo:42044:1,2003-06-02T16:39:00Z,26.1914,-97.0507,0.0,9.559550199,119.3809601,11.34,'11111222,11111222,11111222' 
TABS,ioos:station:wmo:42044:1,2003-06-02T17:09:00Z,26.1914,-97.0507,0.0,10.55007583,124.9256227,12.68,'11111222,11111222,11111222' 
TABS,ioos:station:wmo:42044:1,2003-06-02T17:39:00Z,26.1914,-97.0507,0.0,10.43801226,126.7824062,12.72,'11111222,11111222,11111222' 
TABS,ioos:station:wmo:42044:1,2003-06-02T18:09:00Z,26.1914,-97.0507,0.0,10.60932609,133.7018367,13.97,'11111222,11111222,11111222' 
TABS,ioos:station:wmo:42044:1,2003-06-02T18:39:00Z,26.1914,-97.0507,0.0,11.09004058,136.2425011,13.13,'11111222,11111222,11111222' 
TABS,ioos:station:wmo:42044:1,2003-06-02T19:09:00Z,26.1914,-97.0507,0.0,11.03804783,135.2572451,13.4,'11111222,11111222,11111222' 
TABS,ioos:station:wmo:42044:1,2003-06-02T19:39:00Z,26.1914,-97.0507,0.0,10.8233128,137.6589623,13.07,'11111222,11111222,11111222' 
TABS,ioos:station:wmo:42044:1,2003-06-02T20:09:00Z,26.1914,-97.0507,0.0,11.11280793,136.5681691,13.34,'11111222,11111222,11111222' 
TABS,ioos:station:wmo:42044:1,2003-06-02T20:39:00Z,26.1914,-97.0507,0.0,11.15322823,136.1264643,13.24,'11111222,11111222,11111222' 
TABS,ioos:station:wmo:42044:1,2003-06-02T21:09:00Z,26.1914,-97.0507,0.0,10.99718146,137.2850306,13.22,'11111222,11111222,11111222' 
TABS,ioos:station:wmo:42044:1,2003-06-02T21:39:00Z,26.1914,-97.0507,0.0,11.09569736,135.8401535,13.95,'11111222,11111222,11111222' 
TABS,ioos:station:wmo:42044:1,2003-06-02T22:09:00Z,26.1914,-97.0507,0.0,11.04252236,136.6515586,14.09,'11111222,11111222,11111222' 
TABS,ioos:station:wmo:42044:1,2003-06-02T22:39:00Z,26.1914,-97.0507,0.0,11.34424964,136.1432193,13.6,'11111222,11111222,11111222' 
TABS,ioos:station:wmo:42044:1,2003-06-02T23:09:00Z,26.1914,-97.0507,0.0,10.61514484,135.9545187,12.85,'11111222,11111222,11111222' 
TABS,ioos:station:wmo:42044:1,2003-06-02T23:39:00Z,26.1914,-97.0507,0.0,11.49614283,136.7979274,13.55,'11111222,11111222,11111222' 
TABS,ioos:station:wmo:42044:1,2003-06-03T00:09:00Z,26.1914,-97.0507,0.0,10.83878683,132.1957821,13.01,'11111222,11111222,11111222' 
TABS,ioos:station:wmo:42044:1,2003-06-03T00:39:00Z,26.1914,-97.0507,0.0,9.912517339,123.56216,12.0,'11111222,11111222,11111222' 
TABS,ioos:station:wmo:42044:1,2003-06-03T01:09:00Z,26.1914,-97.0507,0.0,9.533420163,119.4694166,11.96,'11111222,11111222,11111222' 
TABS,ioos:station:wmo:42044:1,2003-06-03T01:39:00Z,26.1914,-97.0507,0.0,6.699268617,99.36429913,8.99,'11111222,11111222,11111222' 
TABS,ioos:station:wmo:42044:1,2003-06-03T02:09:00Z,26.1914,-97.0507,0.0,6.882688428,95.58675127,9.29,'11111222,11111222,11111222' 
TABS,ioos:station:wmo:42044:1,2003-06-03T02:39:00Z,26.1914,-97.0507,0.0,6.771240654,93.30227887,9.43,'11111222,11111222,11111222' 
TABS,ioos:station:wmo:42044:1,2003-06-03T03:09:00Z,26.1914,-97.0507,0.0,6.736839021,102.7782692,9.65,'11111222,11111222,11111222' 
TABS,ioos:station:wmo:42044:1,2003-06-03T03:39:00Z,26.1914,-97.0507,0.0,6.831720135,93.35702402,9.01,'11111222,11111222,11111222' 
TABS,ioos:station:wmo:42044:1,2003-06-03T04:09:00Z,26.1914,-97.0507,0.0,8.530093786,105.9919113,10.34,'11111222,11111222,11111222' 
TABS,ioos:station:wmo:42044:1,2003-06-03T04:39:00Z,26.1914,-97.0507,0.0,9.327320087,118.8461329,11.17,'11111222,11111222,11111222' 
TABS,ioos:station:wmo:42044:1,2003-06-03T05:09:00Z,26.1914,-97.0507,0.0,10.83151882,124.4679981,12.9,'11111222,11111222,11111222' 
TABS,ioos:station:wmo:42044:1,2003-06-03T05:39:00Z,26.1914,-97.0507,0.0,10.66775047,124.4203459,12.99,'11111222,11111222,11111222' 
TABS,ioos:station:wmo:42044:1,2003-06-03T06:09:00Z,26.1914,-97.0507,0.0,11.08117774,134.3056355,13.95,'11111222,11111222,11111222' 
TABS,ioos:station:wmo:42044:1,2003-06-03T06:39:00Z,26.1914,-97.0507,0.0,9.897540098,136.8426426,12.91,'11111222,11111222,11111222' 
TABS,ioos:station:wmo:42044:1,2003-06-03T07:09:00Z,26.1914,-97.0507,0.0,10.1820332,142.9840934,12.83,'11111222,11111222,11111222' 
TABS,ioos:station:wmo:42044:1,2003-06-03T07:39:00Z,26.1914,-97.0507,0.0,9.596634827,150.4701546,12.34,'11111222,11111222,11111222' 
TABS,ioos:station:wmo:42044:1,2003-06-03T08:09:00Z,26.1914,-97.0507,0.0,8.498899929,144.6271904,10.54,'11111222,11111222,11111222' 
TABS,ioos:station:wmo:42044:1,2003-06-03T08:39:00Z,26.1914,-97.0507,0.0,9.212350406,139.9319468,11.59,'11111222,11111222,11111222' 
TABS,ioos:station:wmo:42044:1,2003-06-03T09:09:00Z,26.1914,-97.0507,0.0,8.18137519,134.6536738,9.91,'11111222,11111222,11111222' 
TABS,ioos:station:wmo:42044:1,2003-06-03T09:39:00Z,26.1914,-97.0507,0.0,8.432627111,131.2501672,10.27,'11111222,11111222,11111222' 
TABS,ioos:station:wmo:42044:1,2003-06-03T10:09:00Z,26.1914,-97.0507,0.0,7.434083669,128.2268186,9.07,'11111222,11111222,11111222' 
TABS,ioos:station:wmo:42044:1,2003-06-03T10:39:00Z,26.1914,-97.0507,0.0,8.445122853,130.7267201,10.64,'11111222,11111222,11111222' 
TABS,ioos:station:wmo:42044:1,2003-06-03T11:09:00Z,26.1914,-97.0507,0.0,8.638639939,131.1987284,10.81,'11111222,11111222,11111222' 
TABS,ioos:station:wmo:42044:1,2003-06-03T11:39:00Z,26.1914,-97.0507,0.0,8.584130707,130.9853234,10.87,'11111222,11111222,11111222' 
TABS,ioos:station:wmo:42044:1,2003-06-03T12:09:00Z,26.1914,-97.0507,0.0,8.847349886,129.7727321,11.34,'11111222,11111222,11111222' 
TABS,ioos:station:wmo:42044:1,2003-06-03T12:39:00Z,26.1914,-97.0507,0.0,8.889460051,128.4688856,11.16,'11111222,11111222,11111222' 
TABS,ioos:station:wmo:42044:1,2003-06-03T13:09:00Z,26.1914,-97.0507,0.0,9.655226564,124.3652194,11.86,'11111222,11111222,11111222' 
TABS,ioos:station:wmo:42044:1,2003-06-03T13:39:00Z,26.1914,-97.0507,0.0,9.282720506,125.0429247,10.86,'11111222,11111222,11111222' 
TABS,ioos:station:wmo:42044:1,2003-06-03T14:09:00Z,26.1914,-97.0507,0.0,9.031306661,122.9337851,10.86,'11111222,11111222,11111222' 
TABS,ioos:station:wmo:42044:1,2003-06-03T14:39:00Z,26.1914,-97.0507,0.0,9.144845543,121.5873264,11.04,'11111222,11111222,11111222' 
TABS,ioos:station:wmo:42044:1,2003-06-03T15:09:00Z,26.1914,-97.0507,0.0,9.142778571,124.6637857,10.74,'11111222,11111222,11111222' 
TABS,ioos:station:wmo:42044:1,2003-06-03T15:39:00Z,26.1914,-97.0507,0.0,8.875764756,123.0458608,10.71,'11111222,11111222,11111222' 
TABS,ioos:station:wmo:42044:1,2003-06-03T16:09:00Z,26.1914,-97.0507,0.0,8.894065437,121.2955455,10.3,'11111222,11111222,11111222' 
TABS,ioos:station:wmo:42044:1,2003-06-03T16:39:00Z,26.1914,-97.0507,0.0,8.987841788,124.8043513,10.62,'11111222,11111222,11111222' 
TABS,ioos:station:wmo:42044:1,2003-06-03T17:09:00Z,26.1914,-97.0507,0.0,9.32517024,123.0087566,11.17,'11111222,11111222,11111222' 
TABS,ioos:station:wmo:42044:1,2003-06-03T17:39:00Z,26.1914,-97.0507,0.0,9.667181595,121.9805996,11.41,'11111222,11111222,11111222' 
TABS,ioos:station:wmo:42044:1,2003-06-03T18:09:00Z,26.1914,-97.0507,0.0,9.284880182,122.5093999,10.99,'11111222,11111222,11111222' 
TABS,ioos:station:wmo:42044:1,2003-06-03T18:39:00Z,26.1914,-97.0507,0.0,9.04312446,121.0184343,10.81,'11111222,11111222,11111222' 
TABS,ioos:station:wmo:42044:1,2003-06-03T19:09:00Z,26.1914,-97.0507,0.0,10.00889604,122.515442,12.0,'11111222,11111222,11111222' 
TABS,ioos:station:wmo:42044:1,2003-06-03T19:39:00Z,26.1914,-97.0507,0.0,9.73604129,121.1760485,11.41,'11111222,11111222,11111222' 
TABS,ioos:station:wmo:42044:1,2003-06-03T20:09:00Z,26.1914,-97.0507,0.0,10.4735715,120.6545033,12.58,'11111222,11111222,11111222' 
TABS,ioos:station:wmo:42044:1,2003-06-03T20:39:00Z,26.1914,-97.0507,0.0,10.28693346,120.4291829,12.11,'11111222,11111222,11111222' 
TABS,ioos:station:wmo:42044:1,2003-06-03T21:09:00Z,26.1914,-97.0507,0.0,10.36907903,120.5471411,12.25,'11111222,11111222,11111222' 
TABS,ioos:station:wmo:42044:1,2003-06-03T21:39:00Z,26.1914,-97.0507,0.0,9.96002008,119.602529,12.15,'11111222,11111222,11111222' 
TABS,ioos:station:wmo:42044:1,2003-06-03T22:09:00Z,26.1914,-97.0507,0.0,10.18251933,120.3175419,12.44,'11111222,11111222,11111222' 
TABS,ioos:station:wmo:42044:1,2003-06-03T22:39:00Z,26.1914,-97.0507,0.0,9.85738302,117.2932647,11.8,'11111222,11111222,11111222' 
TABS,ioos:station:wmo:42044:1,2003-06-03T23:09:00Z,26.1914,-97.0507,0.0,9.830732424,117.3734388,11.65,'11111222,11111222,11111222' 
TABS,ioos:station:wmo:42044:1,2003-06-03T23:39:00Z,26.1914,-97.0507,0.0,9.647144655,112.2319023,11.52,'11111222,11111222,11111222' 
TABS,ioos:station:wmo:42044:1,2003-06-04T00:09:00Z,26.1914,-97.0507,0.0,9.316490756,108.9798717,11.25,'11111222,11111222,11111222' 
TABS,ioos:station:wmo:42044:1,2003-06-04T00:39:00Z,26.1914,-97.0507,0.0,9.370528267,101.5741393,11.28,'11111222,11111222,11111222' 
TABS,ioos:station:wmo:42044:1,2003-06-04T01:09:00Z,26.1914,-97.0507,0.0,10.42559351,101.1163244,12.06,'11111222,11111222,11111222' 
TABS,ioos:station:wmo:42044:1,2003-06-04T01:39:00Z,26.1914,-97.0507,0.0,11.0440029,106.3020911,12.91,'11111222,11111222,11111222' 
TABS,ioos:station:wmo:42044:1,2003-06-04T02:09:00Z,26.1914,-97.0507,0.0,10.40696882,109.8282593,12.21,'11111222,11111222,11111222' 
TABS,ioos:station:wmo:42044:1,2003-06-04T02:39:00Z,26.1914,-97.0507,0.0,9.840010163,111.8990922,11.79,'11111222,11111222,11111222' 
TABS,ioos:station:wmo:42044:1,2003-06-04T03:09:00Z,26.1914,-97.0507,0.0,9.475911566,118.2151118,11.27,'11111222,11111222,11111222' 
TABS,ioos:station:wmo:42044:1,2003-06-04T03:39:00Z,26.1914,-97.0507,0.0,10.06893242,122.0962055,12.21,'11111222,11111222,11111222' 
TABS,ioos:station:wmo:42044:1,2003-06-04T04:09:00Z,26.1914,-97.0507,0.0,9.825197199,121.1341213,11.7,'11111222,11111222,11111222' 
TABS,ioos:station:wmo:42044:1,2003-06-04T04:39:00Z,26.1914,-97.0507,0.0,10.88351506,123.2669786,13.8,'11111222,11111222,11111222' 
TABS,ioos:station:wmo:42044:1,2003-06-04T05:09:00Z,26.1914,-97.0507,0.0,12.6130924,127.624318,15.33,'11111222,11111222,11111222' 
TABS,ioos:station:wmo:42044:1,2003-06-04T05:39:00Z,26.1914,-97.0507,0.0,11.83122141,122.5755355,15.31,'11111222,11111222,11111222' 
TABS,ioos:station:wmo:42044:1,2003-06-04T06:09:00Z,26.1914,-97.0507,0.0,10.58302414,121.9483418,13.75,'11111222,11111222,11111222' 
TABS,ioos:station:wmo:42044:1,2003-06-04T06:39:00Z,26.1914,-97.0507,0.0,9.81542154,123.6580301,12.36,'11111222,11111222,11111222' 
TABS,ioos:station:wmo:42044:1,2003-06-04T07:09:00Z,26.1914,-97.0507,0.0,9.816440292,116.3043838,12.2,'11111222,11111222,11111222' 
TABS,ioos:station:wmo:42044:1,2003-06-04T07:39:00Z,26.1914,-97.0507,0.0,8.725302287,103.049148,10.58,'11111222,11111222,11111222' 
TABS,ioos:station:wmo:42044:1,2003-06-04T08:09:00Z,26.1914,-97.0507,0.0,7.639698947,99.72164081,9.73,'11111222,11111222,11111222' 
TABS,ioos:station:wmo:42044:1,2003-06-04T08:39:00Z,26.1914,-97.0507,0.0,7.91904666,102.5448946,9.84,'11111222,11111222,11111222' 
TABS,ioos:station:wmo:42044:1,2003-06-04T09:09:00Z,26.1914,-97.0507,0.0,7.278907885,103.4257048,8.85,'11111222,11111222,11111222' 
TABS,ioos:station:wmo:42044:1,2003-06-04T09:39:00Z,26.1914,-97.0507,0.0,8.599377884,102.9700375,11.8,'11111222,11111222,11111222' 
TABS,ioos:station:wmo:42044:1,2003-06-04T10:09:00Z,26.1914,-97.0507,0.0,7.840727007,115.6176506,9.49,'11111222,11111222,11111222' 
TABS,ioos:station:wmo:42044:1,2003-06-04T10:39:00Z,26.1914,-97.0507,0.0,9.594878842,111.7796019,11.33,'11111222,11111222,11111222' 
TABS,ioos:station:wmo:42044:1,2003-06-04T11:09:00Z,26.1914,-97.0507,0.0,8.579813518,113.637391,10.38,'11111222,11111222,11111222' 
TABS,ioos:station:wmo:42044:1,2003-06-04T11:39:00Z,26.1914,-97.0507,0.0,8.59540575,108.9412353,10.12,'11111222,11111222,11111222' 
TABS,ioos:station:wmo:42044:1,2003-06-04T12:09:00Z,26.1914,-97.0507,0.0,7.554932164,101.9945103,9.36,'11111222,11111222,11111222' 
TABS,ioos:station:wmo:42044:1,2003-06-04T12:39:00Z,26.1914,-97.0507,0.0,6.798507189,92.86702803,8.0,'11111222,11111222,11111222' 
TABS,ioos:station:wmo:42044:1,2003-06-04T13:09:00Z,26.1914,-97.0507,0.0,6.999407118,82.52936792,8.43,'11111222,11111222,11111222' 
TABS,ioos:station:wmo:42044:1,2003-06-04T13:39:00Z,26.1914,-97.0507,0.0,7.35258458,79.10230461,8.53,'11111222,11111222,11111222' 
TABS,ioos:station:wmo:42044:1,2003-06-04T14:09:00Z,26.1914,-97.0507,0.0,6.673866945,78.50446885,8.27,'11111222,11111222,11111222' 
TABS,ioos:station:wmo:42044:1,2003-06-04T14:39:00Z,26.1914,-97.0507,0.0,7.365650005,81.25343727,8.64,'11111222,11111222,11111222' 
TABS,ioos:station:wmo:42044:1,2003-06-04T15:09:00Z,26.1914,-97.0507,0.0,6.00553911,80.31769644,8.39,'11111222,11111222,11111222' 
TABS,ioos:station:wmo:42044:1,2003-06-04T15:39:00Z,26.1914,-97.0507,0.0,6.90374536,57.00014323,9.36,'11111222,11111222,11111222' 
TABS,ioos:station:wmo:42044:1,2003-06-04T16:09:00Z,26.1914,-97.0507,0.0,7.47418223,88.08276956,9.72,'11111222,11111222,11111222' 
TABS,ioos:station:wmo:42044:1,2003-06-04T16:39:00Z,26.1914,-97.0507,0.0,5.918825897,81.25343727,8.73,'11111222,11111222,11111222' 
TABS,ioos:station:wmo:42044:1,2003-06-04T17:09:00Z,26.1914,-97.0507,0.0,7.639751305,82.25131964,9.41,'11111222,11111222,11111222' 
TABS,ioos:station:wmo:42044:1,2003-06-04T17:39:00Z,26.1914,-97.0507,0.0,8.087181215,83.18214509,9.56,'11111222,11111222,11111222' 
TABS,ioos:station:wmo:42044:1,2003-06-04T18:09:00Z,26.1914,-97.0507,0.0,8.241189235,111.6468569,10.35,'11111222,11111222,11111222' 
TABS,ioos:station:wmo:42044:1,2003-06-04T18:39:00Z,26.1914,-97.0507,0.0,8.884908553,121.9373737,11.47,'11111222,11111222,11111222' 
TABS,ioos:station:wmo:42044:1,2003-06-04T19:09:00Z,26.1914,-97.0507,0.0,9.717268135,128.3562592,13.24,'11111222,11111222,11111222' 
TABS,ioos:station:wmo:42044:1,2003-06-04T19:39:00Z,26.1914,-97.0507,0.0,9.3189699,123.6222006,12.54,'11111222,11111222,11111222' 